Regional Weather Roundup
Issued by NWS

Home | Current Version | Previous Version | Graphics & Text | Print | Product List | Glossary On
Versions: 1 2 3 4 5 6 7 8 9 10 11 12 13 14 15 16 17 18 19 20 21 22 23 24 25 26 27 28 29 30 31 32 33 34 35 36 37 38 39 40 41 42 43 44 45 46 47 48 49 50
000
ASUS43 KOAX 250210
RWRNE

WEATHER ROUNDUP FOR NEBRASKA
NATIONAL WEATHER SERVICE OMAHA NE
900 PM CDT TUE APR 24 2018

NOTES: SATELLITE DATA IS BEING USED TO AUGMENT CLOUD COVER ABOVE
       12000 FEET.
       "FAIR" INDICATES FEW OR NO CLOUDS BELOW 12,000 FEET WITH NO
       SIGNIFICANT WEATHER AND/OR OBSTRUCTIONS TO VISIBILITY.


NEZ001>004-019>022-054>056-250300-
NEBRASKA PANHANDLE

CITY           SKY/WX    TMP DP  RH WIND       PRES   REMARKS
SCOTTSBLUFF    CLOUDY    40  32  73 N8        30.41S WCI  34
ALLIANCE       CLOUDY    35  30  82 NE7       30.39S WCI  29
CHADRON        PTCLDY    39  27  62 NE5       30.41S
GORDON         CLOUDY    37  31  78 CALM      30.40S
KIMBALL        CLOUDY    38  30  72 N9        30.39S WCI  31
SIDNEY         CLOUDY    37  29  72 NE15      30.40R WCI  28
$$

NEZ057>060-069>072-079>082-250300-
SOUTHWEST NEBRASKA

CITY           SKY/WX    TMP DP  RH WIND       PRES   REMARKS
NORTH PLATTE   CLOUDY    39  33  79 N14G22    30.36R WCI  31
IMPERIAL       MOCLDY    38  33  82 N13       30.37S WCI  30
LEXINGTON      CLOUDY    41  36  84 N21G29    30.33R
MCCOOK         CLOUDY    41  35  79 N21G30    30.35R
OGALLALA       LGT RAIN  39  32  75 N20G26    30.38S WCI  30
$$

NEZ005>010-023>029-035>040-094-250300-
NORTH CENTRAL NEBRASKA

CITY           SKY/WX    TMP DP  RH WIND       PRES   REMARKS
VALENTINE      CLOUDY    39  34  82 NW7       30.38S WCI  34
AINSWORTH      RAIN      37  35  94 N12       30.37R WCI  29
BROKEN BOW     LGT RAIN  39  36  89 N20G30    30.31S WCI  29
O`NEILL        DRIZZLE   42  40  94 N16       30.33R
ORD            CLOUDY    41  39  93 N18G26    30.29R
THEDFORD       LGT RAIN  36  35  95 N13       30.38R WCI  27
$$

NEZ041-046>049-061>064-073>077-083>087-250300-
SOUTH CENTRAL NEBRASKA

CITY           SKY/WX    TMP DP  RH WIND       PRES   REMARKS
GRAND ISLAND   CLOUDY    45  42  89 N20G31    30.26R
AURORA         CLOUDY    45  44  97 N17G24    30.24R FOG
HASTINGS       CLOUDY    44  43  96 N22G29    30.26R
HEBRON         CLOUDY    48  46  91 NW7       30.22R
HOLDREGE       CLOUDY    40  38  91 N20G29    30.29R WCI  31
KEARNEY        CLOUDY    40  38  93 N21G26    30.29R WCI  30
YORK             N/A     48  48 100 N6        30.22S
$$

NEZ011>018-030>034-042>045-250300-
NORTHEAST NEBRASKA

CITY           SKY/WX    TMP DP  RH WIND       PRES   REMARKS
NORFOLK        LGT RAIN  45  44  97 N14G22    30.23R
ALBION         DRIZZLE   45  44  95 N17G25    30.27R
BLAIR          DRIZZLE   52  49  91 N9        30.19S
COLUMBUS       LGT RAIN  47  45  93 N17       30.23R
FREMONT        DRIZZLE   52  50  92 N7        30.21R
TEKAMAH        LGT RAIN  49  47  93 N10       30.21R
WAYNE          LGT RAIN  47  46  96 N15       30.25R
$$

NEZ050>053-065>068-078-088>093-250300-
SOUTHEAST NEBRASKA

CITY           SKY/WX    TMP DP  RH WIND       PRES   REMARKS
LINCOLN        CLOUDY    51  48  89 NW8       30.21S
OMAHA EPPLEY   LGT RAIN  53  51  93 N10       30.19R
BEATRICE       DRIZZLE   51  50  97 NW7       30.19S
FALLS CITY     LGT RAIN  55  48  77 NW15      30.18R
NEBRASKA CITY  DRIZZLE   52  52 100 N6        30.19S
PLATTSMOUTH    DRIZZLE   53  51  94 NW9       30.19R
$$

NEZ044-045-051>053-067-250300-
OMAHA AREA

CITY           SKY/WX    TMP DP  RH WIND       PRES   REMARKS
OMAHA EPPLEY   LGT RAIN  53  51  93 N10       30.19R
BLAIR          DRIZZLE   52  49  91 N9        30.19S
FREMONT        DRIZZLE   52  50  92 N7        30.21R
MILLARD        CLOUDY    55  52  90 CALM      30.19S
OFFUTT AFB     LGT RAIN  54  50  87 N8        30.18R
PLATTSMOUTH    DRIZZLE   53  51  94 NW9       30.19R
WAHOO          CLOUDY    51  48  91 NW8       30.21R
$$




USA.gov is the U.S. government's official web portal to all federal, state and local government web resources and services.